Theta_e
337 331 326 324 324 322 321 320 320 320 325 325 324 323 320 319 320 321 321 321 321 320 320 320 320 322 323 324 324 324 324 325 328 331 331 331 332 331 330 331 336 334 332
336 332 326 322 322 321 320 320 320 326 325 325 322 318 320 321 322 321 318 315 313 313 314 316 318 319 319 322 324 323 324 324 328 329 331 333 332 332 330 329 335 336 334
336 332 324 321 321 321 320 321 325 325 324 321 318 320 321 321 320 317 314 312 311 310 310 311 312 315 317 318 322 325 324 326 325 333 334 339 341 333 332 332 335 336 335
335 331 322 321 320 320 321 326 326 325 321 318 320 320 321 321 320 318 316 314 311 310 310 309 310 311 314 315 319 324 326 330 328 333 340 341 341 332 333 334 336 336 334
335 329 321 321 320 321 325 328 325 323 318 319 320 321 321 320 319 316 314 313 311 310 309 309 310 312 320 320 331 334 335 335 335 338 340 340 339 333 332 333 335 335 334
334 326 322 321 321 324 325 326 325 319 318 320 321 321 321 319 317 314 313 312 311 310 310 311 312 319 328 329 336 337 336 335 335 337 333 333 339 333 334 334 334 335 334
333 323 323 322 323 325 328 326 324 318 319 321 322 322 320 316 314 315 315 315 315 317 320 320 318 322 330 331 332 333 333 333 337 334 331 331 331 332 330 332 333 333 334
330 323 324 322 321 323 328 326 322 318 320 323 324 323 320 317 317 318 318 318 319 321 324 326 325 329 330 332 332 332 331 330 331 331 333 335 326 329 332 334 334 334 334
328 325 325 322 322 323 327 325 320 319 323 326 325 324 322 320 320 321 322 322 321 322 324 326 329 329 331 331 331 331 330 329 333 327 331 334 330 332 332 333 333 334 335
326 327 326 323 324 323 327 326 320 320 325 328 326 325 325 323 322 321 321 322 323 323 324 325 327 328 328 329 328 327 322 320 331 332 332 330 329 331 329 328 327 328 330
325 328 327 324 321 322 327 325 321 322 326 330 328 327 326 326 325 324 324 322 321 322 324 324 326 328 329 328 326 322 322 331 331 329 330 329 330 330 329 326 322 321 325
327 328 328 325 322 324 326 325 324 325 327 330 331 330 328 327 326 325 325 324 323 321 319 323 326 328 327 324 322 322 328 330 330 328 330 329 330 328 325 322 322 321 321
329 328 328 326 321 322 326 326 326 326 328 330 331 331 329 329 328 327 325 325 324 323 320 322 323 323 322 323 322 321 327 329 329 329 328 324 324 323 322 317 317 315 312
334 329 328 326 322 321 326 327 327 328 329 330 331 332 331 331 331 330 328 325 324 323 321 321 321 320 320 322 321 322 326 326 327 328 324 316 314 307 307 307 305 305 305
338 333 331 328 323 321 326 326 328 329 330 332 331 333 332 332 332 331 329 325 324 324 322 320 320 320 319 318 318 319 322 324 322 322 321 310 308 307 308 308 307 306 304
342 338 333 331 324 322 327 330 332 333 332 334 334 335 334 334 332 332 330 324 323 323 324 322 322 321 321 319 319 318 317 320 319 320 320 317 311 311 312 311 309 309 307
343 342 338 335 327 327 334 334 334 336 336 336 336 336 336 335 333 332 330 326 324 323 324 323 323 322 321 321 321 321 319 317 317 314 319 319 315 313 311 312 312 311 310
341 344 342 338 332 334 339 338 335 336 337 337 337 336 336 335 333 332 329 327 325 323 322 323 320 323 322 321 322 322 320 319 318 315 316 316 318 320 315 314 315 313 312
339 340 342 342 337 333 338 340 339 336 337 338 337 336 336 335 333 332 330 328 324 323 322 321 320 323 322 322 322 321 321 320 319 319 316 317 317 316 318 316 315 315 313
337 337 338 342 340 337 338 340 341 340 337 338 337 336 336 335 333 332 331 329 324 322 321 319 321 323 323 323 323 322 321 320 320 319 319 318 318 317 317 317 320 320 315
338 337 337 341 342 338 338 339 334 336 337 338 337 336 336 335 334 331 331 330 324 320 317 320 319 323 322 323 323 322 321 321 320 320 319 319 319 318 318 317 317 320 320
334 338 338 339 341 339 339 339 337 338 338 337 337 337 337 336 333 332 330 329 324 320 322 322 318 321 321 321 322 323 323 323 321 321 320 320 320 320 318 318 318 317 317
336 338 338 339 340 338 339 339 340 339 339 338 339 337 336 336 334 332 330 329 326 322 322 317 318 319 322 320 319 320 321 321 323 323 320 321 321 320 320 319 319 318 318
340 340 338 339 339 339 339 340 340 337 338 339 338 338 336 336 333 332 331 329 328 325 316 314 314 314 315 318 316 319 318 318 318 319 320 321 322 321 322 321 320 320 319
341 341 339 339 339 339 340 340 340 340 339 339 340 336 335 334 332 332 331 329 328 327 326 328 327 314 312 314 316 316 317 316 315 316 317 318 315 318 322 321 321 321 320
339 340 339 339 339 339 340 341 340 340 341 340 338 335 333 334 333 332 332 329 328 328 328 328 327 317 312 312 312 314 318 318 318 318 317 317 316 318 319 318 315 314 314
Wind_Speed
17 14 13 12 12 11 10 10 10 11 12 11 10 10 10 9 8 7 5 4 2 2 3 3 3 2 2 3 4 4 5 6 8 8 8 7 7 7 7 7 9 10 11
20 16 14 12 12 11 11 11 12 12 11 11 11 11 9 8 8 6 5 3 2 2 3 4 4 3 3 3 3 4 5 7 8 8 7 6 5 5 5 5 6 8 9
19 17 15 13 12 11 11 12 13 12 11 11 11 10 9 8 7 6 6 5 4 3 3 3 2 2 2 3 3 4 5 7 9 9 7 6 5 4 4 4 5 7 8
18 15 14 13 12 11 12 13 12 11 11 12 11 9 9 8 8 8 7 6 5 5 5 4 2 2 3 3 4 5 7 8 9 8 6 6 5 3 3 3 4 6 7
17 15 14 14 13 12 13 13 11 11 12 10 10 9 9 8 8 8 8 8 8 7 7 7 7 7 8 8 10 10 10 10 9 9 7 5 5 2 0 4 4 4 5
17 15 14 14 13 13 13 12 11 12 11 10 9 9 8 8 9 9 9 9 9 9 10 10 9 12 10 11 13 12 12 11 10 7 4 3 5 4 5 2 2 3 4
16 15 14 13 12 12 12 10 10 11 10 9 9 9 9 9 10 10 10 10 10 11 12 12 10 12 12 11 10 9 9 8 8 6 5 4 3 2 1 2 3 4 5
15 15 13 12 11 11 11 10 10 10 9 9 10 11 11 12 11 10 10 10 11 11 12 12 12 14 12 11 9 8 6 5 4 5 6 5 4 1 4 6 6 8 8
14 13 12 12 11 11 10 9 10 9 9 9 10 11 12 12 11 10 9 10 10 10 11 12 10 12 10 10 8 6 5 5 4 4 4 4 6 6 7 7 8 9 11
15 13 13 12 11 11 10 10 10 9 9 9 9 10 11 10 10 8 7 9 9 9 8 8 7 9 7 7 7 7 7 4 5 6 7 9 7 8 6 5 4 2 4
16 13 12 12 12 12 11 11 10 9 8 7 7 7 7 7 7 7 6 7 7 7 7 6 7 6 6 6 7 9 8 9 8 10 12 10 12 11 11 9 8 4 1
18 16 13 12 12 13 12 11 10 8 8 7 6 5 4 4 4 4 4 5 6 7 6 6 6 6 6 8 10 11 9 10 11 11 12 10 8 7 6 6 5 2 4
16 16 15 13 12 12 10 10 9 8 8 6 4 4 3 3 2 2 2 3 3 6 7 8 8 7 7 7 9 9 8 7 7 9 7 6 7 7 9 6 2 1 2
14 14 13 13 12 13 12 10 8 7 6 4 4 3 1 1 3 3 3 2 1 2 4 8 7 8 7 6 8 8 8 7 6 6 4 4 5 4 7 5 4 5 5
15 14 12 11 13 14 13 10 8 7 7 5 5 2 1 2 4 4 4 1 3 2 3 6 6 8 9 8 9 9 8 8 8 7 6 5 6 9 11 11 10 10 9
14 13 12 11 13 14 13 11 9 8 8 6 4 2 2 4 5 6 6 1 4 6 3 6 3 5 7 8 9 10 10 9 8 7 7 8 11 12 13 14 14 14 15
16 14 13 13 13 14 12 11 11 10 9 7 6 5 4 6 6 8 5 3 4 5 7 9 5 5 5 6 6 7 8 8 8 9 9 9 11 12 13 14 14 13 13
13 15 15 15 15 15 13 12 12 12 11 9 9 9 8 8 7 8 6 5 5 6 7 10 6 10 9 6 4 3 4 5 6 7 8 9 8 7 10 10 10 11 10
11 14 17 18 16 15 14 14 12 16 13 12 12 11 11 9 9 8 7 6 5 7 8 7 7 11 11 9 8 6 5 5 5 4 5 4 4 5 5 5 5 6 7
9 12 17 20 19 15 13 11 14 17 14 15 13 13 12 11 10 10 8 7 6 8 9 7 8 11 11 11 11 12 10 10 9 8 7 6 5 3 3 3 4 3 0
9 8 13 20 20 15 12 12 12 11 15 11 14 14 14 14 12 10 9 8 7 7 7 10 12 12 12 11 13 14 15 16 15 14 13 11 11 9 8 7 7 7 7
7 6 10 15 14 15 11 8 10 7 8 13 14 16 17 15 12 10 10 9 8 8 11 9 13 13 13 13 10 10 10 12 20 20 19 18 16 15 14 13 12 12 11
5 4 7 10 13 12 8 9 7 6 5 10 10 12 13 13 12 12 11 11 10 9 9 9 12 14 11 16 17 11 6 9 5 11 21 22 20 20 18 18 16 16 17
6 6 7 9 12 13 11 10 8 6 8 9 11 13 13 13 12 12 12 12 13 10 9 10 11 14 14 12 17 20 20 14 8 6 7 14 19 21 21 21 22 21 21
6 8 9 12 14 13 11 11 10 9 10 11 14 14 11 11 13 14 14 14 17 15 14 13 13 13 14 13 12 16 18 20 18 12 10 7 11 12 16 20 20 21 21
6 11 13 14 15 15 15 13 12 11 11 11 12 12 11 14 14 14 15 14 19 18 18 17 14 13 13 14 14 17 16 13 14 13 13 11 10 9 12 15 15 15 15
Wind_Direction
157 160 148 150 144 143 139 132 126 121 119 117 116 109 102 97 87 80 73 63 30 317 289 283 273 246 209 202 179 177 170 156 146 136 123 111 96 87 74 71 72 72 69
156 157 151 145 142 141 140 133 130 127 124 121 116 109 99 87 79 72 65 51 11 320 299 287 285 256 218 220 185 170 161 161 157 140 129 108 90 75 64 74 77 75 74
159 155 146 141 141 145 138 134 133 131 127 121 110 100 93 87 82 72 56 42 19 354 326 336 290 256 202 201 174 157 154 150 151 144 130 111 98 55 48 72 94 93 84
158 151 145 142 145 142 137 138 133 129 125 119 107 98 87 74 62 50 42 32 19 358 5 22 18 68 123 140 130 126 141 144 146 149 121 106 91 43 72 82 96 94 91
156 155 148 146 145 142 141 137 132 128 121 112 103 92 82 72 63 56 48 37 27 17 22 40 59 78 81 106 107 112 116 126 131 119 109 101 83 36 165 123 108 99 102
157 154 147 146 146 145 143 139 133 128 124 113 101 93 86 77 69 66 57 49 43 36 37 48 58 84 95 109 114 109 104 102 103 100 95 63 83 87 113 94 132 129 119
157 150 147 146 145 145 144 136 130 124 115 109 103 96 86 78 79 72 63 52 48 47 48 56 70 92 103 106 108 105 106 96 84 63 59 73 56 352 357 77 117 140 137
158 151 149 147 150 148 145 138 133 124 120 118 103 92 87 87 85 75 63 53 47 51 57 65 80 95 96 99 102 96 90 70 41 39 58 56 7 79 111 105 110 125 121
159 154 153 154 154 154 149 137 133 133 127 115 98 95 90 91 90 80 67 55 44 42 50 70 94 104 107 105 91 83 32 9 47 343 44 70 97 107 116 110 111 103 106
163 161 162 161 159 158 151 144 148 141 130 125 113 96 89 91 91 81 63 50 38 35 55 64 96 102 90 81 65 25 1 356 62 77 90 112 109 114 111 114 117 131 127
167 166 165 168 166 165 161 160 156 145 144 132 118 101 95 91 91 85 52 44 46 40 71 81 90 103 100 79 44 32 54 77 88 103 104 108 108 101 84 65 37 39 233
168 172 172 171 171 170 167 166 162 158 153 144 133 117 98 85 78 83 53 27 44 49 54 89 99 107 89 62 46 58 74 89 95 87 97 98 108 85 54 338 346 10 101
159 171 173 169 170 172 173 174 172 170 164 153 135 136 111 91 37 54 33 359 23 53 59 99 107 95 60 60 55 52 84 90 80 83 97 63 13 345 316 318 348 32 73
171 173 174 172 172 173 180 182 182 185 177 176 170 133 118 47 14 5 353 8 202 69 73 109 92 73 62 69 66 74 89 94 96 99 73 8 326 37 75 88 80 85 84
188 187 182 180 179 183 183 187 192 199 194 196 179 177 154 355 348 338 341 307 185 197 127 110 99 81 76 80 74 72 85 91 91 99 96 80 75 80 82 81 84 86 87
206 200 196 192 190 188 192 193 200 205 209 210 205 239 317 335 335 335 332 309 191 210 190 164 120 115 102 97 88 83 90 98 93 99 108 90 86 91 90 86 86 86 88
217 212 209 206 198 197 197 205 210 215 224 232 252 268 297 307 323 321 300 299 250 215 213 210 329 177 162 127 111 99 96 104 93 101 103 116 97 92 92 91 84 85 87
230 224 220 215 210 204 209 217 225 225 233 246 259 269 288 304 311 313 309 300 272 235 229 235 295 206 194 188 169 139 129 125 122 116 108 106 110 123 99 94 87 82 80
229 227 228 224 220 214 223 233 249 238 238 248 261 264 277 292 308 311 310 306 274 242 254 256 259 210 211 223 223 215 212 197 180 160 157 134 109 102 120 99 94 87 76
240 238 227 226 220 216 231 239 259 288 279 261 261 264 278 282 294 304 300 295 269 255 252 261 228 219 221 236 230 234 237 236 229 219 207 207 212 200 193 184 213 231 54
246 255 219 213 220 222 235 243 275 292 281 271 258 269 280 284 286 292 290 280 261 246 240 266 236 223 226 222 221 238 245 244 242 239 234 230 230 231 236 242 247 234 243
229 234 218 212 215 228 243 267 298 321 289 265 267 272 274 273 283 287 283 266 253 253 280 244 223 223 233 230 221 231 248 252 249 248 247 245 243 242 244 247 250 256 253
242 229 228 216 210 232 237 254 295 304 292 267 287 298 291 286 284 288 285 255 252 251 259 243 237 235 235 243 238 231 235 243 234 245 246 246 245 248 246 248 254 258 259
264 245 235 218 224 225 229 247 274 279 299 299 299 300 293 283 279 287 291 251 241 240 242 248 253 246 243 245 247 242 241 243 261 269 260 246 249 255 250 247 253 257 260
255 237 225 221 223 228 238 255 259 258 278 292 303 303 294 292 288 286 289 255 234 236 238 253 268 254 248 247 244 245 243 247 253 249 262 252 254 253 242 245 252 261 261
229 214 215 219 225 234 240 253 260 262 271 285 298 302 293 299 292 283 288 262 242 242 242 253 262 257 256 257 250 241 239 242 245 242 246 249 243 252 247 251 259 265 270